Weather past 2 weeks in Adamstown, Pitcairn Islands

Now
82 °F

Warm.


Feels Like: 86 °F
Forecast: 77 / 82 °F
Wind: 8 mph from North

Location: Rikitea

Current Time: Dec 28, 2014 at 3:47:36 PM

Latest Report: Dec 28, 2014 at 3:00 PM


Visibility: N/A

Pressure: 29.84 "Hg

Humidity: 71%

Dew point: 72 °F

Location of AdamstownLocation

Historic Weather in Adamstown — Graph

°F

Adamstown temperature yesterday

Maximum temperature yesterday: 82 °F (at 12:00 PM)
Minimum temperature yesterday: 74 °F (at 5:00 AM)
Average temperature yesterday: 77 °F

Past Weeks' High & Low Weather Summary

 TemperatureHumidityPressure
High83 °F (Dec 13, 3:00 PM)96% (Dec 20, 7:00 PM)30.10 "Hg (Dec 20, 7:00 PM)
Low71 °F (Dec 20, 1:00 AM)61% (Dec 13, 3:00 PM)29.79 "Hg (Dec 22, 5:00 PM)
Average76 °F85%29.96 "Hg
* Reported Dec 13 2:00 PM — Dec 28 2:00 PM, Adamstown, Weather by CustomWeather, © 2014

Note: Actual official high and low records may vary slightly from our data, if they occured in-between our weather recording intervals... More about our weather records

Advertising

Adamstown weather history for previous 24 hours

 ConditionsComfort  
Time TempWeatherWind HumidityBarometerVisibility
2:00 PM
Dec 28
83 °FWarm.9 mph69%29.85 "HgN/A
1:00 PM82 °FScattered clouds.10 mph69%29.87 "Hg19 mi
12:00 PM82 °FScattered clouds.10 mph73%29.89 "Hg19 mi
11:00 AM82 °FWarm.12 mph71%29.89 "HgN/A
10:00 AM80 °FScattered clouds.10 mph75%29.89 "Hg19 mi
9:00 AM78 °FScattered clouds.12 mph77%29.90 "Hg19 mi
8:00 AM76 °FPartly sunny.9 mph85%29.91 "Hg19 mi
7:00 AM75 °FPartly sunny.8 mph85%29.90 "Hg19 mi
6:00 AM74 °FMild.9 mph86%29.88 "HgN/A
5:00 AM74 °FMild.6 mph89%29.88 "HgN/A
4:00 AM75 °FMild.7 mph88%29.88 "HgN/A
3:00 AM75 °FMild.8 mph86%29.88 "HgN/A
2:00 AM75 °FMild.10 mph86%29.89 "HgN/A
1:00 AM76 °FMild.7 mph85%29.93 "HgN/A
12:00 AM76 °FMild.9 mph85%29.95 "HgN/A
11:00 PM
Dec 27
76 °FMild.7 mph85%29.97 "HgN/A
10:00 PM76 °FMild.7 mph85%29.98 "HgN/A
9:00 PM76 °FMild.6 mph84%29.97 "HgN/A
8:00 PM76 °FMild.5 mph83%29.95 "HgN/A
6:00 PM77 °FOvercast.3 mph82%29.94 "Hg19 mi
5:00 PM78 °FOvercast.6 mph81%29.93 "Hg25 mi
4:00 PM78 °FOvercast.5 mph80%29.93 "Hg25 mi
3:00 PM78 °FPartly sunny.6 mph77%29.95 "Hg25 mi
Weather by CustomWeather, © 2014

See weather overviewHow to use our weather pages